STARLINK-2506, 48315

Orbit data source: Space-Track

STARLINK-2506, 48315 is a payload satellite owned by SpaceX/Seattle (US) in LEO that was launched on Thu, 29 Apr 2021 UTC via an FALCON 9 launch vehicle from the Air Force Eastern Test Range (AFETR). Payload-class satellites include a variety of spacecraft equipped with specific instruments for various scientific and technological missions. These include communications satellites like Starlink; space stations such as the ISS; scientific satellites like the Hubble; Earth observation satellites from companies like Planet Labs, Umbra, and HawkEye 360; GPS; miniature CubeSats for education and research; and military/defense satellites.

Loading next visibility...
Identifier
48315, 2021-036AR
Orbit
LEO
Country
Flag of USUS
Related business
Manufacturer
SpaceX/Seattle
Mission
Operational Commercial Communications
Bus & Motor
STARLINK, Unknown motor
Mass
260 kg wet, ~248 kg dry
Launch date (UTC)
2021-04-29 (5 years ago)
Launch vehicle
FALCON 9
Launch site
Air Force Eastern Test Range (AFETR)
Object type
Payload
Rocket body
Debris
Shape & HBR
Box + 1 Pan, 10.1 m
Radar Cross Section
13.562 m², Large (>1 m²)

Expand to show TLE details & history
Last TLE update: 17 hours ago

TLE from 17 hours ago
0 STARLINK-2506
1 48315U 21036AR  26036.96115590 -.00008921  00000-0 -58048-3 0  9996
2 48315  53.0556 234.0518 0001583 105.9436 254.1727 15.06416043263385
Epoch: 2026-02-05T23:04Z
TLE epoch observation values (Epoch: 2026-02-05T23:04:03.869Z)
Latitude
-0.00007°
Longitude
111.92975°
Altitude
548.341 km
Speed
7.589 km/s
True Right ascension
15h 36m 12s
True Declination
0° 00' 00"
Sunlit
Object was in daylight at epoch
Visualization orbit readout
Latitude
Unknown
Longitude
Unknown
Altitude
Unknown
Speed
Unknown
Apparent Right ascension
Unknown
Apparent Declination
Unknown
Sunlit
N/A
Visualization observer readout
Local Sidereal Time
18:03:58
Azimuth
Unknown
Elevation
Unknown
Doppler factor
Unknown
Orbital elements
Apogee altitude
548.529 km
Perigee altitude
546.337 km
Semi-major axis
6,925.57 km
Eccentricity
0.00016
Inclination
53.0556°
RAAN
234.0518°
Arg. of periapsis
105.9436°
True anomaly
254.15525°
Mean anomaly
254.1727°
Eccentric anomaly
254.16397°
Mean motion
3.76582 °/min
Orbital period
95.6 mins
BSTAR
-0.00058048
Loading maneuver chart data...
Computing Atmospheric mass density...
Loading historical data...
Loading historical data...
Loading historical data...
Loading historical data...
Loading historical data...
Loading historical data...
Loading historical data...

Documentation

Showing up to 5 results
|